GW6795 Weather Reports


time (UTC)temp
C
wind
direction
speed
KPH
gust
KPH
rain 1hr
cm
rain 24hr
cm
rain mn
cm
humidity
%
barometer
mb
20260506204047 10 332 3.2 4.8 0.00 0.00 0.15 77 1012.5
20260506203546 10 301 3.2 4.8 0.00 0.00 0.15 78 1012.5
20260506203049 10 333 4.8 4.8 0.00 0.00 0.15 78 1012.2
20260506202547 10 324 1.6 4.8 0.00 0.00 0.15 78 1012.2
20260506202046 10 270 4.8 4.8 0.00 0.00 0.15 78 1012.2
20260506201546 10 294 4.8 4.8 0.00 0.00 0.15 78 1012.5
20260506201046 10 302 3.2 4.8 0.00 0.00 0.15 78 1012.5
20260506200548 10 305 4.8 4.8 0.00 0.00 0.15 78 1012.2
20260506200048 10 287 3.2 4.8 0.00 0.00 0.15 78 1012.2
20260506195547 10 300 3.2 4.8 0.00 0.00 0.15 78 1012.2
20260506195046 10 299 3.2 4.8 0.00 0.00 0.15 78 1012.2
20260506194546 10 307 4.8 4.8 0.00 0.00 0.15 77 1012.2
20260506194047 10 316 4.8 4.8 0.00 0.00 0.15 77 1011.9
20260506193547 10 344 4.8 6.4 0.00 0.00 0.15 77 1011.9
20260506193050 10 335 4.8 4.8 0.00 0.00 0.15 76 1011.9
20260506192546 10 313 4.8 4.8 0.00 0.00 0.15 77 1011.9
20260506192046 10 299 3.2 6.4 0.00 0.00 0.15 76 1011.9
20260506191547 10 332 0.0 6.4 0.00 0.00 0.15 76 1011.9
20260506191047 10 306 4.8 6.4 0.00 0.00 0.15 76 1011.9
20260506190546 10 313 4.8 8.0 0.00 0.00 0.15 75 1011.5
20260506190047 10 306 3.2 4.8 0.00 0.00 0.15 76 1011.5
20260506185546 10 311 3.2 4.8 0.00 0.00 0.15 76 1011.5
20260506185047 10 309 4.8 8.0 0.00 0.00 0.15 75 1011.5
20260506184547 11 335 3.2 11.3 0.00 0.00 0.15 76 1011.5
20260506184047 11 240 3.2 9.7 0.00 0.00 0.15 76 1011.5
20260506183546 11 292 4.8 4.8 0.00 0.00 0.15 76 1011.2
20260506183048 11 296 3.2 8.0 0.00 0.00 0.15 75 1011.5
20260506182546 11 353 4.8 8.0 0.00 0.00 0.15 75 1011.5
20260506182047 11 312 3.2 6.4 0.00 0.00 0.15 76 1011.2
20260506181546 11 305 3.2 6.4 0.00 0.00 0.15 76 1011.2
20260506181047 11 292 4.8 4.8 0.00 0.00 0.15 77 1011.2
20260506180546 11 293 4.8 8.0 0.00 0.00 0.15 76 1010.8
20260506180046 11 345 4.8 8.0 0.00 0.00 0.15 76 1011.2
20260506175547 11 305 3.2 4.8 0.00 0.00 0.15 77 1010.8
20260506175047 11 304 4.8 8.0 0.00 0.00 0.15 76 1010.8
20260506174548 11 302 4.8 4.8 0.00 0.00 0.15 76 1011.2
20260506174046 11 310 4.8 8.0 0.00 0.00 0.15 76 1010.8
20260506173550 10 359 4.8 8.0 0.00 0.00 0.15 76 1010.8
20260506173047 10 344 8.0 14.5 0.00 0.00 0.15 76 1010.8
20260506172547 10 295 4.8 8.0 0.00 0.00 0.15 77 1010.5
20260506172046 10 303 6.4 14.5 0.00 0.00 0.15 76 1010.5
20260506171546 10 305 3.2 8.0 0.00 0.00 0.15 78 1010.5
20260506171047 10 301 4.8 6.4 0.00 0.00 0.15 77 1010.5
20260506170548 10 337 4.8 6.4 0.00 0.00 0.15 77 1010.5
20260506170046 10 353 8.0 12.9 0.00 0.00 0.15 77 1010.5
20260506165547 10 325 4.8 6.4 0.00 0.00 0.15 78 1010.5
20260506165046 10 299 6.4 8.0 0.00 0.00 0.15 77 1010.2
20260506164546 11 284 3.2 11.3 0.00 0.00 0.15 76 1010.5
20260506164047 11 316 4.8 6.4 0.00 0.00 0.15 77 1010.2
20260506163546 11 287 4.8 12.9 0.00 0.00 0.15 76 1010.5
20260506163047 11 318 4.8 9.7 0.00 0.00 0.15 75 1010.2
20260506162546 11 314 6.4 8.0 0.00 0.00 0.15 75 1010.2
20260506162048 11 257 3.2 6.4 0.00 0.00 0.15 74 1010.2
20260506161546 11 59 4.8 9.7 0.00 0.00 0.15 73 1010.2
20260506161047 11 306 6.4 14.5 0.00 0.00 0.15 74 1010.2
20260506160546 11 304 6.4 8.0 0.00 0.00 0.15 72 1010.2
20260506160050 11 285 4.8 11.3 0.00 0.00 0.15 71 1010.2
20260506155547 11 319 4.8 6.4 0.00 0.00 0.15 70 1010.2
20260506155047 11 249 3.2 11.3 0.00 0.00 0.15 69 1010.5
20260506154547 11 293 1.6 11.3 0.00 0.00 0.15 70 1010.2
20260506154046 11 312 8.0 9.7 0.00 0.00 0.15 69 1010.2
20260506153547 12 232 3.2 8.0 0.00 0.00 0.15 68 1009.8
20260506153047 12 354 4.8 8.0 0.00 0.00 0.15 68 1009.8
20260506152547 12 294 6.4 9.7 0.00 0.00 0.15 67 1009.8
20260506152046 12 294 4.8 8.0 0.00 0.00 0.15 67 1009.8
20260506151547 12 288 4.8 6.4 0.00 0.00 0.15 68 1010.2
20260506151047 12 296 6.4 9.7 0.00 0.00 0.15 67 1010.2
20260506150547 12 273 3.2 6.4 0.00 0.00 0.15 70 1010.2
20260506150046 12 258 4.8 6.4 0.00 0.00 0.15 69 1009.8
20260506145547 12 333 4.8 6.4 0.00 0.00 0.15 69 1010.2
20260506145047 12 1 8.0 9.7 0.00 0.00 0.15 69 1009.8
20260506144549 12 32 14.5 16.1 0.00 0.00 0.15 66 1010.2
20260506144047 12 355 8.0 9.7 0.00 0.00 0.15 64 1009.8
20260506143547 12 311 4.8 14.5 0.00 0.00 0.15 64 1009.8
20260506143047 12 248 4.8 11.3 0.00 0.00 0.15 63 1009.8
20260506142546 12 268 4.8 6.4 0.00 0.00 0.15 62 1009.8
20260506142047 12 291 8.0 8.0 0.00 0.00 0.15 64 1009.8
20260506141546 12 281 9.7 9.7 0.00 0.00 0.15 63 1009.8
20260506141047 12 339 8.0 16.1 0.00 0.00 0.15 63 1009.8
20260506140547 12 339 3.2 8.0 0.00 0.00 0.15 63 1009.8
20260506140047 12 263 4.8 4.8 0.00 0.00 0.15 65 1009.8
20260506135547 12 313 6.4 9.7 0.00 0.00 0.15 63 1009.8
20260506135047 12 280 4.8 11.3 0.00 0.00 0.15 63 1009.8
20260506134547 12 296 9.7 12.9 0.00 0.00 0.15 63 1009.8
20260506134047 12 311 6.4 11.3 0.00 0.00 0.15 66 1009.8
20260506133547 12 78 4.8 8.0 0.00 0.00 0.15 65 1009.8
20260506133046 12 21 3.2 11.3 0.00 0.00 0.15 66 1009.8
20260506132546 12 316 8.0 9.7 0.00 0.00 0.15 66 1009.8
20260506132046 12 310 6.4 9.7 0.00 0.00 0.15 66 1009.8
20260506131548 12 316 8.0 8.0 0.00 0.00 0.15 66 1009.8
20260506131047 12 355 6.4 8.0 0.00 0.00 0.15 68 1009.8
20260506130547 12 282 6.4 11.3 0.00 0.00 0.15 65 1009.8
20260506130047 12 290 8.0 8.0 0.00 0.00 0.15 66 1009.8
20260506125547 12 302 4.8 11.3 0.00 0.00 0.15 66 1009.5
20260506125047 12 303 4.8 9.7 0.00 0.00 0.15 66 1009.5
20260506124546 12 305 9.7 12.9 0.00 0.00 0.15 65 1009.8
20260506124047 12 295 4.8 4.8 0.00 0.00 0.15 67 1009.8
20260506123546 12 311 3.2 8.0 0.00 0.00 0.15 67 1009.5
20260506123047 12 330 4.8 12.9 0.00 0.00 0.15 67 1009.5
20260506122547 12 38 3.2 14.5 0.00 0.00 0.15 66 1009.5
20260506122047 12 286 4.8 8.0 0.00 0.00 0.15 67 1009.5
20260506121546 12 331 3.2 11.3 0.00 0.00 0.15 65 1009.5
20260506121047 12 316 4.8 8.0 0.00 0.00 0.15 66 1009.5
20260506120547 12 284 6.4 11.3 0.00 0.00 0.15 66 1009.1
20260506120046 12 341 4.8 11.3 0.00 0.00 0.15 65 1009.1
20260506115546 12 309 9.7 11.3 0.00 0.00 0.15 64 1009.5
20260506115047 12 330 6.4 17.7 0.00 0.00 0.15 66 1009.1
20260506114547 12 255 3.2 6.4 0.00 0.00 0.15 67 1009.1
20260506114047 12 296 4.8 9.7 0.00 0.00 0.15 67 1009.1
20260506113547 12 268 9.7 12.9 0.00 0.00 0.15 66 1009.1
20260506113047 12 11 9.7 9.7 0.00 0.00 0.15 68 1009.1
20260506112546 12 304 6.4 14.5 0.00 0.00 0.15 69 1009.1
20260506112046 12 321 12.9 17.7 0.00 0.00 0.15 68 1009.1
20260506111547 12 318 8.0 8.0 0.00 0.00 0.15 69 1009.1
20260506111046 12 319 4.8 16.1 0.00 0.00 0.15 71 1009.1
20260506110547 11 319 4.8 17.7 0.00 0.00 0.15 68 1009.5
20260506110047 11 305 3.2 16.1 0.00 0.00 0.15 71 1009.1
20260506105546 11 275 3.2 8.0 0.00 0.00 0.15 74 1009.1
20260506105047 11 307 8.0 8.0 0.00 0.00 0.15 75 1009.1
20260506104546 11 10 4.8 8.0 0.00 0.00 0.15 78 1009.5
20260506104046 11 318 8.0 17.7 0.00 0.00 0.15 78 1009.5
20260506103549 11 308 11.3 14.5 0.00 0.00 0.15 79 1009.1
20260506103047 11 276 4.8 11.3 0.00 0.00 0.15 79 1009.1
20260506102547 11 34 3.2 14.5 0.00 0.00 0.15 80 1009.1
20260506102047 11 304 6.4 9.7 0.00 0.00 0.15 79 1009.1
20260506101550 11 303 9.7 12.9 0.00 0.00 0.15 79 1009.1
20260506101047 11 0 4.8 12.9 0.00 0.00 0.15 79 1009.1
20260506100546 11 307 6.4 11.3 0.00 0.00 0.15 80 1009.1
20260506100047 11 280 6.4 11.3 0.00 0.00 0.15 79 1009.1
20260506095546 11 358 4.8 9.7 0.00 0.00 0.15 79 1008.8
20260506095046 11 352 6.4 9.7 0.00 0.00 0.15 79 1008.8
20260506094547 11 288 4.8 14.5 0.00 0.00 0.15 79 1008.8
20260506094047 11 330 6.4 9.7 0.00 0.00 0.15 79 1008.8
20260506093546 11 10 6.4 8.0 0.00 0.00 0.15 79 1008.5
20260506093047 11 277 3.2 6.4 0.00 0.00 0.15 79 1008.8
20260506092546 11 301 6.4 14.5 0.00 0.00 0.15 79 1008.5
20260506092046 12 297 8.0 12.9 0.00 0.00 0.15 80 1008.5
20260506091549 11 291 6.4 8.0 0.00 0.00 0.15 80 1008.5
20260506091047 11 37 4.8 9.7 0.00 0.00 0.15 80 1008.5
20260506090546 11 319 6.4 12.9 0.00 0.00 0.15 80 1008.5
20260506090046 11 264 4.8 9.7 0.00 0.00 0.15 81 1008.5
20260506085546 11 291 8.0 12.9 0.00 0.00 0.15 82 1008.5
20260506085047 11 289 6.4 9.7 0.00 0.00 0.15 84 1008.5
20260506084546 11 303 4.8 12.9 0.00 0.00 0.15 84 1008.5
20260506084046 11 313 0.0 8.0 0.00 0.00 0.15 84 1008.5
20260506083546 11 340 4.8 16.1 0.00 0.00 0.15 84 1008.5
20260506083046 11 285 3.2 11.3 0.00 0.00 0.15 85 1008.5
20260506082547 11 305 3.2 8.0 0.00 0.00 0.15 86 1008.5
20260506082047 10 303 4.8 6.4 0.00 0.00 0.15 86 1008.1
20260506081547 10 297 6.4 8.0 0.00 0.00 0.15 87 1008.1
20260506081046 10 314 4.8 8.0 0.00 0.00 0.15 87 1008.1
20260506080546 10 302 4.8 12.9 0.00 0.00 0.15 87 1008.5
20260506073046 10 281 4.8 6.4 0.00 0.00 0.15 90 1008.1
20260506072547 10 300 8.0 9.7 0.00 0.00 0.15 91 1008.1
20260506072048 10 327 4.8 6.4 0.00 0.00 0.15 92 1008.1
20260506071547 10 293 4.8 9.7 0.00 0.00 0.15 92 1008.1
20260506071046 10 273 4.8 11.3 0.00 0.00 0.15 91 1008.5
20260506070547 10 287 4.8 6.4 0.00 0.00 0.15 92 1008.1
20260506062047 9 302 4.8 12.9 0.05 0.00 0.13 93 1007.8
20260506061546 9 313 4.8 6.4 0.05 0.00 0.13 93 1008.1
20260506061046 9 296 11.3 11.3 0.00 0.00 0.13 93 1008.1
20260506060547 9 285 8.0 14.5 0.05 0.00 0.13 93 1007.8
20260506051047 8 258 4.8 8.0 0.00 0.00 0.10 94 1008.1
20260506050547 8 330 4.8 14.5 0.00 0.00 0.10 93 1007.8
20260506045046 8 296 6.4 8.0 0.00 0.00 0.10 94 1007.8
20260506044547 8 335 8.0 8.0 0.00 0.00 0.10 94 1007.8
20260506044047 8 304 4.8 9.7 0.00 0.00 0.10 94 1007.8
20260506043547 8 326 6.4 6.4 0.05 0.00 0.10 94 1007.8
20260506043047 8 293 4.8 9.7 0.05 0.00 0.10 94 1007.8
20260506042546 8 280 6.4 8.0 0.00 0.00 0.10 94 1007.8
20260506042046 8 301 3.2 11.3 0.00 0.00 0.10 94 1007.5
20260506041547 8 295 4.8 8.0 0.00 0.00 0.10 95 1007.8
20260506041046 8 270 6.4 12.9 0.00 0.00 0.10 95 1007.8
20260506040546 8 346 0.0 8.0 0.00 0.00 0.10 95 1008.1
20260506040047 8 297 3.2 4.8 0.00 0.00 0.10 95 1007.8
20260506035547 8 295 4.8 4.8 0.00 0.00 0.10 95 1007.8
20260506035047 8 302 4.8 8.0 0.00 0.00 0.10 95 1007.8
20260506034546 8 294 4.8 9.7 0.05 0.00 0.10 95 1007.8
20260506034046 8 297 4.8 11.3 0.00 0.00 0.08 95 1007.8
20260506033546 8 326 6.4 8.0 0.05 0.00 0.08 95 1007.8
20260506033046 8 289 4.8 9.7 0.13 0.00 0.08 95 1007.8
20260506032546 8 302 1.6 9.7 0.05 0.00 0.08 95 1007.8
20260506032046 8 290 8.0 11.3 0.00 0.00 0.05 95 1007.8
20260506031547 8 293 4.8 9.7 0.05 0.00 0.05 95 1007.8
20260506031046 8 318 4.8 4.8 0.05 0.00 0.05 95 1007.8
20260506030547 8 307 4.8 8.0 0.00 0.00 0.05 95 1007.8
20260506030046 8 272 3.2 9.7 0.05 0.00 0.05 95 1008.1
20260506025547 8 304 4.8 8.0 0.05 0.00 0.05 94 1008.1
20260506025046 8 349 4.8 9.7 0.00 0.00 0.05 94 1008.1
20260506024546 8 292 4.8 11.3 0.00 0.00 0.05 94 1008.1
20260506024047 8 280 3.2 6.4 0.00 0.00 0.05 94 1008.1
20260506023546 8 0 0.0 16.1 0.00 0.00 0.05 94 1008.1
20260506023046 8 285 3.2 6.4 0.00 0.00 0.05 94 1008.1
20260506022546 8 310 4.8 4.8 0.00 0.00 0.05 94 1008.1
20260506022046 8 298 4.8 9.7 0.00 0.00 0.05 94 1008.1
20260506021547 8 287 6.4 8.0 0.00 0.00 0.05 94 1008.1
20260506021047 8 291 4.8 11.3 0.05 0.00 0.05 93 1008.1
20260506020546 8 305 4.8 6.4 0.05 0.00 0.05 93 1008.5
20260506020047 8 317 0.0 6.4 0.00 0.00 0.03 93 1008.1
20260506015546 8 310 4.8 12.9 0.00 0.00 0.03 93 1008.1
20260506015046 9 311 4.8 8.0 0.00 0.00 0.03 93 1008.1
20260506014548 9 247 6.4 11.3 0.00 0.00 0.03 92 1008.5
20260506014046 9 295 3.2 6.4 0.00 0.00 0.03 92 1008.5
20260506013547 9 300 3.2 4.8 0.00 0.00 0.03 92 1008.1
20260506013046 9 319 4.8 6.4 0.00 0.00 0.03 91 1008.5
20260506012546 9 329 6.4 9.7 0.05 0.00 0.03 91 1008.5
20260506012047 9 344 3.2 6.4 0.05 0.00 0.03 90 1008.5
20260506011547 9 286 6.4 9.7 0.00 0.00 0.03 89 1008.5
20260506011047 9 356 4.8 11.3 0.05 0.00 0.03 89 1008.5
20260506010547 10 313 4.8 4.8 0.05 0.00 0.03 88 1008.5
20260506010046 10 278 3.2 14.5 0.05 0.00 0.00 87 1008.5
20260506005546 10 302 4.8 8.0 0.05 0.00 0.00 87 1008.5
20260506005047 10 305 6.4 9.7 0.00 0.00 0.00 86 1008.5
20260506004546 10 273 3.2 14.5 0.00 0.00 0.00 85 1008.5
20260506004047 10 338 3.2 8.0 0.00 0.00 0.00 85 1008.5
20260506003546 10 276 6.4 11.3 0.00 0.00 0.00 84 1008.8
20260506003047 10 253 3.2 9.7 0.00 0.00 0.00 84 1008.8
20260506002547 10 341 3.2 11.3 0.00 0.00 0.00 83 1008.8
20260506002047 10 315 3.2 8.0 0.00 0.00 0.00 83 1008.8
20260506001547 10 291 4.8 8.0 0.00 0.00 0.00 83 1008.8
20260506001047 10 329 4.8 8.0 0.00 0.00 0.00 83 1008.8
20260506000546 10 299 4.8 11.3 0.00 0.00 0.00 83 1008.8
20260506000046 10 306 6.4 11.3 0.00 0.00 0.00 83 1008.8
20260505235547 10 289 4.8 9.7 0.00 0.00 0.00 83 1008.8
20260505235047 10 336 4.8 16.1 0.00 0.00 0.00 83 1008.8
20260505234546 10 311 6.4 12.9 0.00 0.00 0.00 83 1009.1
20260505234047 10 290 4.8 16.1 0.00 0.00 0.00 83 1008.8
20260505233546 10 288 4.8 8.0 0.00 0.00 0.00 84 1009.1
20260505233047 10 291 4.8 8.0 0.00 0.00 0.00 83 1009.1
20260505232547 10 328 4.8 16.1 0.00 0.00 0.00 83 1009.1
20260505232046 10 256 8.0 8.0 0.00 0.00 0.00 83 1009.1
20260505231546 10 351 0.0 9.7 0.00 0.00 0.00 83 1009.1
20260505231046 10 296 6.4 12.9 0.00 0.00 0.00 84 1009.1
20260505230547 10 286 4.8 9.7 0.00 0.00 0.00 84 1009.1
20260505230046 10 299 3.2 9.7 0.00 0.00 0.00 84 1009.1
20260505225546 10 286 4.8 9.7 0.00 0.00 0.00 84 1009.1
20260505225048 10 278 4.8 6.4 0.00 0.00 0.00 84 1009.1
20260505224546 10 333 1.6 8.0 0.00 0.00 0.00 84 1009.1
20260505224046 10 295 3.2 8.0 0.00 0.00 0.00 84 1009.5
20260505223547 10 259 6.4 8.0 0.00 0.00 0.00 84 1009.1
20260505223047 10 284 9.7 11.3 0.00 0.00 0.00 84 1009.1
20260505222546 10 349 6.4 9.7 0.00 0.00 0.00 84 1009.5
20260505222046 10 281 8.0 9.7 0.00 0.00 0.00 84 1009.5
20260505221546 10 330 4.8 4.8 0.00 0.00 0.00 85 1009.5
20260505221048 10 325 4.8 8.0 0.00 0.00 0.00 85 1009.5
20260505220546 10 294 4.8 9.7 0.00 0.00 0.00 86 1009.5
20260505220046 10 289 4.8 6.4 0.00 0.00 0.00 86 1009.5
20260505215546 10 320 6.4 8.0 0.00 0.00 1.07 86 1009.5
20260505215046 10 320 4.8 11.3 0.00 0.00 1.07 87 1009.8
20260505214547 10 316 4.8 8.0 0.00 0.00 1.07 88 1009.8
20260505214046 10 337 4.8 11.3 0.00 0.00 1.07 88 1009.5
20260505213547 10 337 4.8 6.4 0.00 0.00 1.07 88 1009.8
20260505213046 10 320 3.2 8.0 0.00 0.00 1.07 87 1009.8
20260505212546 10 339 3.2 8.0 0.00 0.00 1.07 87 1009.8
20260505212047 10 305 1.6 8.0 0.00 0.00 1.07 87 1009.8
20260505211547 10 333 8.0 14.5 0.00 0.00 1.07 86 1009.8
20260505211048 11 318 3.2 9.7 0.00 0.00 1.07 86 1009.8
20260505210548 11 315 4.8 11.3 0.00 0.00 1.07 86 1009.8
20260505210046 11 247 3.2 8.0 0.00 0.00 1.07 86 1009.8
20260505205547 11 325 6.4 12.9 0.00 0.00 1.07 85 1009.8
20260505205046 11 306 4.8 8.0 0.00 0.00 1.07 85 1009.8
20260505204546 11 325 4.8 6.4 0.00 0.00 1.07 85 1009.8